Corvallis, OR

6:00 AM PDT on March 25, 2017 (GMT -0700)
Corvallis Municipal

Weather History for KCVO - October, 2012

Change the Weather History Date:

Sunday, October 21, 2012

  Actual Average Record
Temperature  
Mean Temperature 46 °F -  
Max Temperature 53 °F 61 °F 80 °F (2003)
Min Temperature 39 °F 40 °F 32 °F (1998)
Degree Days  
Heating Degree Days 19    
Moisture  
Dew Point 43 °F    
Average Humidity 87    
Maximum Humidity 100    
Minimum Humidity 67    
Precipitation  
Precipitation 0.09 in - - ()
Sea Level Pressure  
Sea Level Pressure 29.88 in    
Wind  
Wind Speed 6 mph (SSE)    
Max Wind Speed 15 mph    
Max Gust Speed 17 mph    
Visibility 10 miles    
Events      
Averages and records for this station are not official NWS values.
T = Trace of Precipitation, MM = Missing Value Source: NWS Daily Summary

Daily Weather History Graph

Daily Weather History Graph

Search for Another Location

Airport or City:

Trip Planner

Search our weather history database for the weather conditions in past years. The results will help you decide how hot, cold, wet, or windy it might be!

Date:

Astronomy

Oct. 21, 2012 Rise Set
Actual Time 7:36 AM PDT 6:17 PM PDT
Civil Twilight 7:07 AM PDT 6:47 PM PDT
Nautical Twilight 6:33 AM PDT 7:21 PM PDT
Astronomical Twilight 5:59 AM PDT 7:54 PM PDT
Moon 2:05 PM PDT (10/21) No Moon Set
Length of Visible Light 11h 40m
Length of Day
10h 41m
Waxing Crescent, 46% of the Moon is Illuminated
Oct 21
Waxing Crescent
Oct 21
First Quarter
Oct 29
Full
Nov 6
Last Quarter
Nov 13
New

Hourly Weather History & Observations

Time (PDT) Temp. Windchill Dew Point Humidity Pressure Visibility Wind Dir Wind Speed Gust Speed Precip Events Conditions
12:15 AM 44.6 °F 40.7 °F 41.0 °F 87% 29.95 in 10.0 mi SE 6.9 mph - N/A   Scattered Clouds
12:35 AM 44.6 °F 40.2 °F 41.0 °F 87% 29.96 in 10.0 mi ESE 8.1 mph - N/A   Partly Cloudy
12:55 AM 44.6 °F 40.7 °F 41.0 °F 87% 29.95 in 10.0 mi ESE 6.9 mph - N/A   Clear
1:15 AM 42.8 °F 39.3 °F 41.0 °F 93% 29.95 in 10.0 mi SE 5.8 mph - N/A   Mostly Cloudy
1:35 AM 42.8 °F 38.6 °F 41.0 °F 93% 29.95 in 10.0 mi ESE 6.9 mph - N/A   Mostly Cloudy
1:55 AM 42.8 °F 41.1 °F 41.0 °F 93% 29.95 in 10.0 mi SE 3.5 mph - N/A   Overcast
2:15 AM 44.6 °F 40.2 °F 42.8 °F 93% 29.95 in 10.0 mi SSE 8.1 mph - N/A   Overcast
2:35 AM 44.6 °F 40.7 °F 42.8 °F 93% 29.95 in 10.0 mi South 6.9 mph - N/A   Overcast
2:55 AM 44.6 °F 41.4 °F 42.8 °F 93% 29.95 in 10.0 mi South 5.8 mph - N/A   Overcast
3:15 AM 44.6 °F 43.1 °F 42.8 °F 93% 29.96 in 10.0 mi NW 3.5 mph - 0.03 in   Overcast
3:35 AM 44.6 °F 43.1 °F 42.8 °F 93% 29.94 in 7.0 mi ESE 3.5 mph - 0.08 in   Overcast
3:55 AM 44.6 °F 42.2 °F 42.8 °F 93% 29.93 in 10.0 mi ESE 4.6 mph - 0.09 in   Overcast
4:15 AM 44.6 °F 41.4 °F 42.8 °F 93% 29.93 in 10.0 mi SE 5.8 mph - N/A   Mostly Cloudy
4:35 AM 42.8 °F 39.3 °F 41.0 °F 93% 29.92 in 10.0 mi SE 5.8 mph - N/A   Scattered Clouds
4:55 AM 42.8 °F 39.3 °F 41.0 °F 93% 29.92 in 10.0 mi SSE 5.8 mph - N/A   Clear
5:15 AM 42.8 °F 37.5 °F 41.0 °F 93% 29.92 in 10.0 mi SSE 9.2 mph - N/A   Partly Cloudy
5:35 AM 41.0 °F 38.0 °F 39.2 °F 93% 29.93 in 10.0 mi South 4.6 mph - N/A   Mostly Cloudy
5:55 AM 41.0 °F 38.0 °F 39.2 °F 93% 29.93 in 10.0 mi SE 4.6 mph - N/A   Mostly Cloudy
6:15 AM 41.0 °F 39.0 °F 39.2 °F 93% 29.93 in 10.0 mi SE 3.5 mph - N/A   Partly Cloudy
6:35 AM 41.0 °F 35.8 °F 39.2 °F 93% 29.93 in 10.0 mi SSE 8.1 mph - N/A   Mostly Cloudy
6:55 AM 41.0 °F - 39.2 °F 93% 29.93 in 10.0 mi Calm Calm - N/A   Overcast
7:15 AM 39.2 °F 35.0 °F 39.2 °F 100% 29.92 in 10.0 mi SSE 5.8 mph - N/A   Overcast
7:35 AM 42.8 °F - 41.0 °F 93% 29.93 in 10.0 mi Calm Calm - N/A   Overcast
7:55 AM 42.8 °F 40.1 °F 42.8 °F 100% 29.93 in 10.0 mi South 4.6 mph - N/A   Overcast
8:15 AM 42.8 °F 40.1 °F 42.8 °F 100% 29.93 in 10.0 mi SSE 4.6 mph - N/A   Mostly Cloudy
8:35 AM 42.8 °F 41.1 °F 42.8 °F 100% 29.93 in 10.0 mi SSE 3.5 mph - N/A   Overcast
8:55 AM 42.8 °F - 42.8 °F 100% 29.92 in 10.0 mi Calm Calm - N/A   Overcast
9:15 AM 44.6 °F 41.4 °F 44.6 °F 100% 29.93 in 10.0 mi SSE 5.8 mph - N/A   Overcast
9:35 AM 44.6 °F - 42.8 °F 93% 29.92 in 10.0 mi Calm Calm - N/A   Overcast
9:55 AM 44.6 °F - 42.8 °F 93% 29.92 in 10.0 mi Calm Calm - N/A   Mostly Cloudy
10:15 AM 46.4 °F - 42.8 °F 87% 29.93 in 10.0 mi Calm Calm - N/A   Mostly Cloudy
10:35 AM 46.4 °F 45.2 °F 44.6 °F 93% 29.92 in 10.0 mi South 3.5 mph - N/A   Overcast
10:55 AM 46.4 °F 44.3 °F 44.6 °F 93% 29.92 in 10.0 mi South 4.6 mph - N/A   Mostly Cloudy
11:15 AM 46.4 °F 42.9 °F 44.6 °F 93% 29.92 in 10.0 mi SE 6.9 mph - N/A   Mostly Cloudy
11:35 AM 48.2 °F - 44.6 °F 87% 29.92 in 10.0 mi SSE 10.4 mph - N/A   Overcast
11:55 AM 50.0 °F - 46.4 °F 87% 29.92 in 10.0 mi SSE 10.4 mph - N/A   Overcast
12:15 PM 51.8 °F - 46.4 °F 82% 29.92 in 10.0 mi SSE 11.5 mph - N/A   Overcast
12:35 PM 51.8 °F - 44.6 °F 76% 29.91 in 10.0 mi SE 15.0 mph - N/A   Overcast
12:55 PM 53.6 °F - 44.6 °F 72% 29.90 in 10.0 mi SSE 13.8 mph - N/A   Overcast
1:15 PM 53.6 °F - 44.6 °F 72% 29.89 in 10.0 mi SE 12.7 mph - N/A   Mostly Cloudy
1:35 PM 53.6 °F - 44.6 °F 72% 29.88 in 10.0 mi SE 12.7 mph - N/A   Mostly Cloudy
1:55 PM 53.6 °F - 42.8 °F 67% 29.87 in 10.0 mi SE 9.2 mph - N/A   Overcast
2:15 PM 53.6 °F - 44.6 °F 72% 29.87 in 10.0 mi SE 12.7 mph - N/A   Mostly Cloudy
2:35 PM 53.6 °F - 42.8 °F 67% 29.86 in 10.0 mi SE 12.7 mph 17.3 mph N/A   Mostly Cloudy
2:55 PM 53.6 °F - 42.8 °F 67% 29.86 in 10.0 mi SSE 11.5 mph - N/A   Scattered Clouds
3:15 PM 53.6 °F - 44.6 °F 72% 29.85 in 10.0 mi SSE 12.7 mph - N/A   Scattered Clouds
3:35 PM 51.8 °F - 42.8 °F 71% 29.84 in 10.0 mi SSE 10.4 mph - N/A   Partly Cloudy
3:55 PM 51.8 °F - 42.8 °F 71% 29.84 in 10.0 mi SSE 10.4 mph - N/A   Clear
4:15 PM 51.8 °F - 42.8 °F 71% 29.84 in 10.0 mi SSE 11.5 mph - N/A   Scattered Clouds
4:35 PM 51.8 °F - 42.8 °F 71% 29.83 in 10.0 mi SSE 9.2 mph - N/A   Mostly Cloudy
4:55 PM 51.8 °F - 42.8 °F 71% 29.83 in 10.0 mi SE 10.4 mph - N/A   Mostly Cloudy
5:15 PM 51.8 °F - 44.6 °F 76% 29.82 in 10.0 mi SE 10.4 mph - N/A   Overcast
5:35 PM 51.8 °F - 42.8 °F 71% 29.82 in 10.0 mi SSE 12.7 mph 17.3 mph N/A   Overcast
5:55 PM 50.0 °F - 42.8 °F 76% 29.81 in 10.0 mi SSE 12.7 mph - N/A   Overcast
6:15 PM 50.0 °F - 42.8 °F 76% 29.80 in 10.0 mi SSE 10.4 mph - N/A   Overcast
6:35 PM 48.2 °F - 42.8 °F 82% 29.81 in 10.0 mi SSE 8.1 mph - N/A   Overcast
6:55 PM 48.2 °F - 42.8 °F 82% 29.80 in 10.0 mi South 8.1 mph - N/A   Overcast
7:15 PM 46.4 °F 45.2 °F 42.8 °F 87% 29.80 in 10.0 mi South 3.5 mph - N/A   Overcast
7:35 PM 46.4 °F - 44.6 °F 93% 29.80 in 10.0 mi Calm Calm - N/A   Overcast
7:55 PM 46.4 °F - 44.6 °F 93% 29.80 in 10.0 mi Calm Calm - N/A   Overcast
8:15 PM 46.4 °F 45.2 °F 44.6 °F 93% 29.80 in 10.0 mi West 3.5 mph - N/A   Overcast
8:35 PM 46.4 °F 44.3 °F 44.6 °F 93% 29.79 in 10.0 mi West 4.6 mph - N/A   Overcast
8:55 PM 46.4 °F - 44.6 °F 93% 29.79 in 10.0 mi Calm Calm - N/A   Overcast
9:15 PM 46.4 °F - 42.8 °F 87% 29.78 in 10.0 mi Calm Calm - N/A   Overcast
9:35 PM 44.6 °F - 42.8 °F 93% 29.77 in 10.0 mi Calm Calm - N/A   Scattered Clouds
9:55 PM 44.6 °F - 42.8 °F 93% 29.77 in 10.0 mi Calm Calm - N/A   Partly Cloudy
10:15 PM 42.8 °F 40.1 °F 42.8 °F 100% 29.76 in 10.0 mi ENE 4.6 mph - N/A   Mostly Cloudy
10:55 PM 42.8 °F - 42.8 °F 100% 29.75 in 10.0 mi Calm Calm - N/A   Scattered Clouds
11:15 PM 41.0 °F - 39.2 °F 93% 29.74 in 10.0 mi Calm Calm - N/A   Mostly Cloudy
11:35 PM 42.8 °F - 41.0 °F 93% 29.74 in 10.0 mi Calm Calm - N/A   Overcast
11:55 PM 42.8 °F 41.1 °F 41.0 °F 93% 29.73 in 7.0 mi WNW 3.5 mph - N/A   Overcast